• In Belarus
  • List of Countries
  • For 7 days
  • Water Temperature
  • Satellite Maps
  • Weather Map
  • Weather Widgets
  • user-avatar
    Login

    Hourly Weather Wroclaw

    Today, 20 October, Saturday

    Time Temperature Precipitation Wind Pressure Humidity
    00:00 +12°C° 0 mm 1 mps 758 mmHg 88%
    01:00 +12°C° 0 mm 1 mps 758 mmHg 89%
    02:00 +12°C° 0 mm 1 mps 758 mmHg 88%
    03:00 +12°C° 0 mm 1 mps 758 mmHg 88%
    04:00 +12°C° 0 mm 2 mps 758 mmHg 88%
    05:00 +12°C° 0 mm 2 mps 758 mmHg 87%
    06:00 +12°C° 0 mm 2 mps 758 mmHg 87%
    07:00 +12°C° 0 mm 2 mps 758 mmHg 86%
    08:00 +11°C° 0 mm 3 mps 759 mmHg 82%
    09:00 +11°C° 0 mm 3 mps 759 mmHg 77%
    10:00 +12°C° 0 mm 3 mps 759 mmHg 73%
    11:00 +12°C° 0 mm 4 mps 759 mmHg 69%
    12:00 +13°C° 0 mm 4 mps 759 mmHg 64%
    13:00 +13°C° 0 mm 4 mps 759 mmHg 60%
    14:00 +12°C° 0 mm 4 mps 759 mmHg 61%
    15:00 +12°C° 0 mm 5 mps 759 mmHg 62%
    16:00 +10°C° 0 mm 5 mps 759 mmHg 63%
    17:00 +10°C° 0 mm 4 mps 759 mmHg 63%
    18:00 +10°C° 0 mm 4 mps 759 mmHg 64%
    19:00 +9°C° 0 mm 3 mps 759 mmHg 64%
    20:00 +8°C° 0 mm 4 mps 760 mmHg 65%
    21:00 +8°C° 0 mm 4 mps 760 mmHg 66%
    22:00 +8°C° 0 mm 4 mps 760 mmHg 67%
    23:00 +8°C° 0.1 mm 3 mps 760 mmHg 69%

    Tomorrow, 21 October, Sunday

    Time Temperature Precipitation Wind Pressure Humidity
    00:00 +8°C° 0.1 mm 3 mps 760 mmHg 71%
    01:00 +8°C° 0.1 mm 3 mps 760 mmHg 73%
    02:00 +8°C° 0 mm 3 mps 760 mmHg 76%
    03:00 +7°C° 0 mm 3 mps 759 mmHg 80%
    04:00 +7°C° 0 mm 2 mps 759 mmHg 83%
    05:00 +7°C° 0 mm 2 mps 759 mmHg 85%
    06:00 +6°C° 0 mm 2 mps 760 mmHg 87%
    07:00 +6°C° 0 mm 2 mps 760 mmHg 89%
    08:00 +7°C° 0 mm 2 mps 760 mmHg 82%
    09:00 +9°C° 0 mm 2 mps 760 mmHg 76%
    10:00 +10°C° 0 mm 2 mps 760 mmHg 70%
    11:00 +12°C° 0 mm 2 mps 760 mmHg 66%
    12:00 +13°C° 0 mm 2 mps 760 mmHg 62%
    13:00 +14°C° 0 mm 1 mps 760 mmHg 57%
    14:00 +14°C° 0 mm 1 mps 760 mmHg 59%
    15:00 +13°C° 0 mm 1 mps 760 mmHg 60%
    16:00 +13°C° 0 mm 1 mps 759 mmHg 61%
    17:00 +12°C° 0 mm 1 mps 760 mmHg 66%
    18:00 +11°C° 0 mm 1 mps 760 mmHg 70%
    19:00 +8°C° 0 mm 0 mps 760 mmHg 75%
    20:00 +8°C° 0 mm 0 mps 760 mmHg 76%
    21:00 +8°C° 0 mm 0 mps 760 mmHg 78%
    22:00 +7°C° 0 mm 0 mps 760 mmHg 79%
    23:00 +8°C° 0 mm 1 mps 760 mmHg 81%

    Day after tomorrow, 22 October, Monday

    Time Temperature Precipitation Wind Pressure Humidity
    00:00 +8°C° 0 mm 1 mps 760 mmHg 82%
    01:00 +7°C° 0 mm 1 mps 760 mmHg 83%
    02:00 +7°C° 0 mm 1 mps 759 mmHg 84%
    03:00 +7°C° 0 mm 1 mps 759 mmHg 84%
    04:00 +7°C° 0 mm 1 mps 759 mmHg 85%
    05:00 +6°C° 0 mm 1 mps 759 mmHg 85%
    06:00 +5°C° 0 mm 0 mps 759 mmHg 85%
    07:00 +5°C° 0 mm 0 mps 759 mmHg 85%
    08:00 +8°C° 0 mm 1 mps 759 mmHg 77%
    09:00 +10°C° 0 mm 1 mps 759 mmHg 69%
    10:00 +12°C° 0 mm 1 mps 759 mmHg 61%
    11:00 +13°C° 0 mm 1 mps 758 mmHg 57%
    12:00 +14°C° 0 mm 1 mps 758 mmHg 53%
    13:00 +15°C° 0 mm 1 mps 757 mmHg 49%
    14:00 +14°C° 0 mm 1 mps 757 mmHg 51%
    15:00 +14°C° 0 mm 1 mps 757 mmHg 53%
    16:00 +13°C° 0 mm 1 mps 756 mmHg 55%
    17:00 +12°C° 0 mm 1 mps 757 mmHg 60%
    18:00 +10°C° 0 mm 2 mps 757 mmHg 64%
    19:00 +9°C° 0 mm 2 mps 757 mmHg 68%
    20:00 +9°C° 0.3 mm 3 mps 757 mmHg 74%
    21:00 +8°C° 0.3 mm 3 mps 758 mmHg 79%
    22:00 +7°C° 0.3 mm 4 mps 758 mmHg 84%
    23:00 +7°C° 0.5 mm 4 mps 758 mmHg 84%

    23 October, Tuesday

    Time Temperature Precipitation Wind Pressure Humidity
    00:00 +7°C° 0.5 mm 5 mps 758 mmHg 84%
    01:00 +7°C° 0.5 mm 5 mps 758 mmHg 84%
    02:00 +6°C° 0.1 mm 5 mps 758 mmHg 83%
    03:00 +6°C° 0.1 mm 5 mps 758 mmHg 83%
    04:00 +6°C° 0.1 mm 4 mps 758 mmHg 82%
    05:00 +5°C° 0 mm 4 mps 758 mmHg 85%
    06:00 +4°C° 0 mm 4 mps 759 mmHg 87%
    07:00 +4°C° 0 mm 4 mps 759 mmHg 89%
    08:00 +5°C° 0 mm 4 mps 759 mmHg 82%
    09:00 +6°C° 0 mm 4 mps 759 mmHg 75%
    10:00 +8°C° 0 mm 5 mps 759 mmHg 68%
    11:00 +8°C° 0 mm 5 mps 758 mmHg 64%
    12:00 +9°C° 0 mm 5 mps 757 mmHg 59%
    13:00 +10°C° 0 mm 6 mps 756 mmHg 55%
    14:00 +10°C° 0 mm 6 mps 756 mmHg 57%
    15:00 +9°C° 0 mm 6 mps 755 mmHg 59%
    16:00 +9°C° 0 mm 6 mps 754 mmHg 61%
    17:00 +9°C° 0.2 mm 7 mps 753 mmHg 64%
    18:00 +8°C° 0.2 mm 7 mps 752 mmHg 67%
    19:00 +7°C° 0.2 mm 8 mps 751 mmHg 69%
    20:00 +7°C° 0.8 mm 9 mps 750 mmHg 72%
    21:00 +7°C° 0.8 mm 9 mps 749 mmHg 75%
    22:00 +8°C° 0.8 mm 10 mps 747 mmHg 78%
    23:00 +8°C° 0.4 mm 11 mps 746 mmHg 78%

    24 October, Wednesday

    Time Temperature Precipitation Wind Pressure Humidity
    00:00 +9°C° 0.4 mm 11 mps 745 mmHg 78%
    01:00 +11°C° 0.4 mm 11 mps 744 mmHg 78%
    02:00 +11°C° 0.7 mm 11 mps 744 mmHg 78%
    03:00 +11°C° 0.7 mm 11 mps 744 mmHg 78%
    04:00 +11°C° 0.7 mm 11 mps 744 mmHg 78%
    05:00 +11°C° 0.3 mm 10 mps 744 mmHg 77%
    06:00 +10°C° 0.3 mm 9 mps 744 mmHg 77%
    07:00 +10°C° 0.3 mm 9 mps 745 mmHg 77%
    08:00 +10°C° 0.1 mm 9 mps 745 mmHg 74%
    09:00 +10°C° 0.1 mm 9 mps 746 mmHg 71%
    10:00 +9°C° 0.1 mm 10 mps 746 mmHg 68%
    11:00 +10°C° 0.2 mm 9 mps 746 mmHg 66%
    12:00 +10°C° 0.2 mm 9 mps 747 mmHg 65%
    13:00 +10°C° 0.2 mm 9 mps 747 mmHg 64%
    14:00 +10°C° 0.1 mm 8 mps 747 mmHg 65%
    15:00 +9°C° 0.1 mm 7 mps 747 mmHg 65%
    16:00 +9°C° 0.1 mm 6 mps 748 mmHg 66%
    17:00 +9°C° 0.1 mm 6 mps 748 mmHg 67%
    18:00 +8°C° 0.1 mm 5 mps 749 mmHg 69%
    19:00 +8°C° 0.1 mm 5 mps 749 mmHg 70%
    20:00 +7°C° 0 mm 5 mps 749 mmHg 72%
    21:00 +7°C° 0 mm 4 mps 750 mmHg 74%
    22:00 +7°C° 0 mm 4 mps 750 mmHg 75%
    23:00 +7°C° 0 mm 4 mps 750 mmHg 79%

    25 October, Thursday

    Time Temperature Precipitation Wind Pressure Humidity
    00:00 +7°C° 0 mm 4 mps 750 mmHg 82%
    01:00 +7°C° 0 mm 4 mps 750 mmHg 85%
    02:00 +7°C° 0 mm 4 mps 750 mmHg 86%
    03:00 +7°C° 0 mm 4 mps 750 mmHg 88%
    04:00 +7°C° 0 mm 4 mps 750 mmHg 89%
    05:00 +8°C° 0.1 mm 5 mps 750 mmHg 88%
    06:00 +9°C° 0.1 mm 6 mps 750 mmHg 87%
    07:00 +9°C° 0.1 mm 6 mps 749 mmHg 86%
    08:00 +10°C° 0.1 mm 7 mps 749 mmHg 83%
    09:00 +11°C° 0.1 mm 8 mps 749 mmHg 81%
    10:00 +12°C° 0.1 mm 9 mps 749 mmHg 78%
    11:00 +12°C° 0.1 mm 9 mps 748 mmHg 76%
    12:00 +11°C° 0.1 mm 9 mps 748 mmHg 74%
    13:00 +11°C° 0.1 mm 9 mps 748 mmHg 71%
    14:00 +11°C° 0.1 mm 9 mps 747 mmHg 72%
    15:00 +11°C° 0.1 mm 8 mps 747 mmHg 73%
    16:00 +11°C° 0.1 mm 8 mps 747 mmHg 74%
    17:00 +10°C° 0.1 mm 8 mps 747 mmHg 74%
    18:00 +10°C° 0.1 mm 8 mps 747 mmHg 74%
    19:00 +10°C° 0.1 mm 8 mps 747 mmHg 74%
    20:00 +10°C° 0 mm 8 mps 747 mmHg 74%
    21:00 +9°C° 0 mm 8 mps 747 mmHg 74%
    22:00 +8°C° 0 mm 9 mps 747 mmHg 75%
    23:00 +8°C° 0.1 mm 9 mps 746 mmHg 75%
    Show more